User: anonymous   Login
Location: Unspecified
(35.6961°N, 0.0000°E)
Time: 08:46:05
(UTC+00:00)
Language:

NOAA 15 - Orbit

View from above orbital plane
View from above orbital plane
View from above satellite
View from above satellite

Ground track
Ground track

The orbit data is extracted from the following two-line orbital elements,

1 25338U 98030A   19174.95981091 +.00000050 +00000-0 +39577-4 0  9995
2 25338 098.7461 196.2170 0009610 222.8453 137.1979 14.25916318097740
Epoch (UTC): 23 June 2019 23:02:07
Eccentricity: 0.0009610
inclination: 98.7461°
perigee height: 798 km
apogee height: 812 km
right ascension of ascending node: 196.2170°
argument of perigee: 222.8453°
revolutions per day: 14.25916318
mean anomaly at epoch: 137.1979°
orbit number at epoch: 9774

The dashed part of the orbit path shows where the satellite is in the earth's shadow,  

DLR